Location: Beetenbrück
(52.8113°N, 9.5946°E)
Time: 16:16:42
(UTC+00:00)

Cosmos 1727 Rocket - Pass Details

Date: 14 April 2026
Orbit: 961 x 995 km, 82.9° (Epoch: 9 May)

Event Time Altitude Azimuth Distance (km) Brightness Sun altitude
Rises 20:49:51 0° 347° (NNW) 3,729 8.1 -19.6°
Reaches altitude 10° 20:52:25 10° 344° (NNW) 2,774 7.4 -19.9°
Maximum altitude 20:58:39 59° 267° (W) 1,143 4.5 -20.5°
Enters shadow 21:02:58 20° 195° (SSW) 2,096 5.4 -20.9°
